星链-32514 (STARLINK-32514)

导读 | 星芒AI

STARLINK-32514 是 SpaceX Starlink 卫星互联网项目中的一颗低轨卫星,属于其第三代卫星(v1.5)批次。该卫星于2023年发射,部署在约550公里高度的近地轨道,旨在为全球用户提供高速、低延迟的互联网服务。它采用先进的推进系统和激光通信技术,支持与其他星链卫星的高速数据传输,提升网络效率与覆盖范围。星链项目致力于构建全球宽带网络,尤其服务于偏远地区,推动全球互联网普及。

基本信息
目录编号:
61965
目录名称:
STARLINK-32514
国际标识:
2024-210G
轨道中心:
EARTH
卫星名称:
星链-32514
卫星全名:
星链-32514 (STARLINK-32514)
卫星状态:
在轨 (已飞行401 天)
发射日期:
2024-11-14 UTC
国别 :
美国 (US)
星等 :
--
轨道信息
数据来源 国际轨道数据
星历时间: 2025-12-19T19:24:54+0800
23小时前
查看轨道信息
半长轴: 6861.098km
偏心率: 0.0001526
轨道倾角: 42.998°
近地点辐角 284.000°
升交点赤经 265.797°
平近点角 76.068°
近地点: 481.913km
远地点: 484.009km
周期: 94.265分钟
每日圈数: 15.276095
详细信息
固有亮度:
5
最大亮度:
2.5
卫星平台:
Starlink V1.0
覆盖范围:
全球
运营商:
太空探索技术公司
运营商所在国:
美国
制造商(研发单位):
太空探索技术公司
制造商所在国:
美国
使用方式:
暂无
卫星简介
Starlink 计划是 SpaceX 推出的全球卫星互联网项目,通过发射低轨道卫星,为全球尤其是偏远地区提供高速、低延迟的互联网服务。自 2019 年起,Starlink 已部署数千颗卫星,旨在缩小全球数字鸿沟,推动互联网普及。该项目还为军事、航空等行业提供通信支持,带来广泛经济效益。
2D轨道图
3D轨道图
轨道高度分析图
轨道倾角分析图
轨道综合分析图
查看轨道综合分析图